DELTA 1 DEB, 27727

Orbit data source: Space-Track

DELTA 1 DEB, 27727 is space debris in LEO originally from a launch on Thu, 29 Jul 1976 UTC launched from the Air Force Western Test Range (AFWTR). Debris objects in space refer to the collection of defunct objects orbiting the Earth. Examples of debris include non-operational satellites, rocket bodies, and fragments generated from explosions, collisions, or faulty payload assembly.

Loading next visibility...
Identifier
27727, 1976-077FS
Orbit
LEO
Country
Flag of USUS
Related business
Manufacturer
Unknown
Mission
Spacecraft
Bus & Motor
Unknown
Mass
Unknown
Launch date (UTC)
1976-07-29 (50 years ago)
Launch vehicle
Unknown
Launch site
Air Force Western Test Range (AFWTR)
Object type
Payload
Rocket body
Debris
Shape & HBR
Unknown shape, 0.1 m
Radar Cross Section
Small (<0.1 m²)

Expand to show TLE details & history
Last TLE update: 2 days ago

TLE from 2 days ago
0 DELTA 1 DEB
1 27727U 76077FS  26032.23646370 -.00000085  00000-0 -67375-3 0  9992
2 27727 102.7113 133.5029 0411865  15.2732  10.6360 11.68371191495709
Epoch: 2026-02-01T05:40Z
TLE epoch observation values (Epoch: 2026-02-01T05:40:30.463Z)
Latitude
26.1537°
Longitude
-89.40102°
Altitude
1,496.786 km
Speed
7.26 km/s
True Right ascension
08h 28m 41s
True Declination
26° 01' 50"
Sunlit
Object was in full shadow at epoch
Visualization orbit readout
Latitude
Unknown
Longitude
Unknown
Altitude
Unknown
Speed
Unknown
Apparent Right ascension
Unknown
Apparent Declination
Unknown
Sunlit
N/A
Visualization observer readout
Local Sidereal Time
02:46:58
Azimuth
Unknown
Elevation
Unknown
Doppler factor
Unknown
Orbital elements
Apogee altitude
2,161.151 km
Perigee altitude
1,485.569 km
Semi-major axis
8,201.497 km
Eccentricity
0.04119
Inclination
102.7113°
RAAN
133.5029°
Arg. of periapsis
15.2732°
True anomaly
11.55338°
Mean anomaly
10.636°
Eccentric anomaly
11.08991°
Mean motion
2.92216 °/min
Orbital period
123.2 mins
BSTAR
-0.00067375
Loading maneuver chart data...
Computing Atmospheric mass density...
Loading historical data...
Loading historical data...
Loading historical data...
Loading historical data...
Loading historical data...
Loading historical data...
Loading historical data...

Documentation

Showing up to 5 results
|